SCP
-0 -0 -0 -0 0 0 0 0 0 0 0 0 0 0 0 0 0 0 0 0 0 0 0 0 0 0 0 0 0 0 0 0 0 0 0 0 0 0 0 0 0 0 0 0 0 0 0
-0 -0 -0 -0 0 0 0 0 0 0 0 0 0 0 0 0 0 0 0 0 0 0 0 0 0 0 0 0 0 0 0 0 0 0 0 0 0 0 0 0 0 0 0 0 0 0 0
-0 0 0 0 0 0 0 0 0 0 0 0 0 0 0 0 0 0 0 0 0 0 0 0 0 0 0 0 0 0 0 0 0 0 0 0 0 0 0 0 0 0 0 0 0 0 0
0 0 0 0 0 0 0 0 0 0 0 0 0 0 0 0 0 0 0 0 0 0 0 0 0 0 0 0 0 0 0 0 0 0 0 0 0 0 0 0 0 0 0 0 0 0 0
0 0 0 0 0 0 0 0 0 0 0 0 0 0 0 0 0 0 0 0 0 0 0 0 0 0 0 0 0 0 0 0 0 0 0 0 0 0 0 0 0 0 0 0 -0 0 0
0 0 0 0 0 0 0 0 0 0 0 0 0 0 0 0 0 0 0 0 0 0 0 0 0 0 0 0 0 0 0 0 0 0 0 0 0 0 0 0 0 0 0 0 -0 0 0
0 0 0 0 0 0 0 0 0 0 0 0 0 0 0 0 0 0 0 -0 0 0 0 0 0 0 0 0 0 0 0 0 0 0 0 0 0 0 0 0 0 0 0 0 0 0 0
0 0 0 0 0 0 0 0 0 0 0 0 0 0 0 0 0 0 0 0 -0 0 0 0 0 0 0 0 0 0 0 0 0 0 0 0 0 0 0 0 0 0 0 -0 0 0 -0
0 0 0 0 0 -0 0 0 0 0 0 0 0 0 0 0 0 0 0 0 0 0 -0 -0 0 0 0 0 0 0 0 0 0 0 0 0 0 0 0 0 0 0 0 0 -0 0 -0
0 0 0 0 0 0 0 0 0 0 0 0 0 0 0 0 0 0 0 0 0 0 -0 -0 -0 -0 0 0 0 0 0 0 0 0 0 0 0 0 0 0 0 0 0 0 0 0 0
0 0 0 0 0 0 0 0 0 0 0 0 0 0 0 0 0 0 0 0 0 0 0 0 0 -0 0 0 0 0 0 0 0 0 0 0 0 0 0 0 0 0 0 0 0 0 0
0 0 0 0 0 0 0 0 0 0 0 0 0 0 0 0 0 0 0 0 0 0 0 0 0 0 0 0 0 0 0 0 0 0 0 0 0 0 0 0 0 0 0 0 0 0 -0
0 0 0 0 0 0 0 0 0 0 0 0 0 0 0 0 0 0 0 0 0 0 0 0 0 0 0 0 0 0 0 0 0 0 0 0 0 0 0 0 0 0 0 0 0 0 0
0 0 0 0 0 0 0 0 0 0 0 0 0 0 0 0 0 0 0 0 0 0 0 0 -0 0 0 0 0 0 0 0 0 0 0 0 0 0 0 0 0 0 0 0 0 0 0
0 0 0 0 0 0 0 0 0 0 0 0 0 0 0 0 0 0 0 0 0 0 0 0 -0 -0 0 0 0 0 0 0 0 0 0 0 0 0 0 0 0 0 0 0 0 0 0
-0 0 0 0 0 0 0 0 0 0 0 0 0 0 0 0 0 0 0 0 0 0 0 0 -0 -0 0 0 0 0 0 0 0 0 0 0 0 0 0 0 0 0 0 0 0 0 0
-0 0 0 0 0 0 0 0 0 0 0 0 0 0 0 0 -0 0 0 0 0 0 0 0 0 -0 -0 -0 -0 0 0 0 0 0 0 0 0 0 0 0 0 0 0 0 0 0 0
0 0 0 0 0 0 0 0 0 0 0 0 0 0 -0 -0 0 0 -0 -0 -0 0 0 0 0 0 0 -0 -0 0 0 0 0 0 0 0 0 0 0 0 0 0 0 0 0 0 0
0 0 0 0 0 0 0 0 0 0 0 0 0 0 0 -0 0 0 -0 -0 -0 -0 0 0 0 -0 0 -0 -0 -0 0 0 0 0 0 0 0 0 0 0 0 0 0 -0 0 0 0
0 0 0 0 0 0 0 0 0 0 0 0 0 0 -0 -0 -0 0 -0 -0 -0 0 -0 0 0 0 0 0 -0 -0 0 0 0 0 0 0 0 0 0 0 0 0 0 0 0 -0 0
0 0 0 0 0 0 0 0 0 0 0 0 0 0 -0 -0 -0 -0 0 -0 0 0 0 0 0 0 0 0 0 -0 -0 -0 0 0 0 0 0 0 -0 0 0 0 0 0 0 0 0
0 0 0 0 0 0 0 0 0 0 0 0 0 0 0 0 -0 -0 -0 -0 -0 0 -0 0 0 0 0 -0 0 0 -0 -0 -0 0 0 0 0 0 -0 -0 0 0 0 0 0 0 0
0 0 0 0 0 0 0 0 0 0 0 0 0 0 0 0 -0 -0 -0 -0 0 -0 -0 -0 -0 0 0 -0 -0 -0 -0 -0 -0 -0 0 0 0 0 0 0 -0 0 0 0 0 0 0
0 0 0 0 0 0 0 0 0 0 0 0 0 0 0 0 0 0 0 -0 -0 0 -0 -0 0 -0 -0 -0 -0 -0 0 -0 -0 -0 -0 0 0 0 0 0 0 -0 -0 0 0 0 0
0 0 0 0 0 0 0 0 0 0 0 0 0 0 0 0 0 -0 0 -0 -0 -0 -0 -0 0 -0 -0 -0 -0 -0 -0 -0 -0 -0 -0 0 0 0 0 0 0 0 0 0 0 0 0
0 0 0 0 0 0 0 0 0 0 0 0 0 0 0 0 0 0 0 0 0 0 0 0 0 0 -0 0 -0 -0 -0 -0 -0 -0 0 0 0 0 0 0 0 0 0 0 0 0 0
0 0 0 0 0 0 0 0 0 0 0 0 0 0 0 0 0 0 0 0 0 0 0 0 0 0 0 0 -0 -0 0 -0 -0 -0 0 0 0 0 0 0 0 0 0 0 0 0 0
0 0 0 0 0 0 0 0 0 0 0 0 0 0 0 0 0 0 0 0 0 0 0 0 0 0 0 0 0 0 0 0 -0 -0 0 0 0 0 0 0 0 0 0 0 0 0 0
0 0 0 0 0 0 0 0 0 0 0 0 0 0 0 0 0 0 0 -0 -0 -0 0 0 0 0 -0 0 0 0 0 0 -0 -0 -0 0 0 0 0 0 0 0 0 0 0 0 0
Wind_Speed_500mb
35 35 34 34 35 38 39 39 39 39 38 39 38 38 37 36 42 47 48 48 49 50 51 51 48 49 45 33 55 15 39 33 15 11 44 55 47 41 16 11 11 12 28 52 55 57 59
33 34 34 34 33 35 37 39 41 41 41 41 42 42 43 43 42 41 41 44 49 49 47 46 38 36 40 30 70 63 51 53 27 20 24 52 34 44 7 22 12 24 26 40 38 53 57
36 37 36 36 40 42 42 41 42 43 43 44 45 45 45 45 46 46 47 46 44 46 50 49 37 36 50 93 45 44 69 89 73 60 50 38 59 23 18 11 43 30 27 34 27 36 43
39 39 38 39 40 42 42 40 41 42 43 44 45 47 48 49 49 49 49 49 48 52 46 40 37 31 45 66 52 87 76 50 63 69 71 64 45 54 30 17 15 8 6 14 12 31 38
39 41 43 41 40 42 46 44 43 45 46 47 45 47 50 52 52 50 52 56 55 56 54 42 31 28 37 33 65 84 83 80 65 51 48 28 47 33 9 14 9 4 28 31 43 22 12
43 43 45 46 46 47 44 45 46 47 48 49 51 50 48 49 52 53 55 56 49 27 21 18 25 12 45 38 32 46 59 76 57 36 47 39 25 12 10 10 26 20 16 12 33 2 17
46 45 44 46 47 46 44 46 49 49 47 47 48 51 55 53 48 48 54 56 18 3 14 21 17 29 12 33 32 13 19 40 50 33 25 33 15 37 36 42 33 16 15 18 16 8 13
46 47 47 47 49 44 44 47 48 48 47 49 50 49 47 52 54 45 42 23 17 23 29 47 61 72 86 65 25 22 30 26 28 35 20 14 60 38 32 32 32 18 19 34 37 17 13
43 44 43 43 45 44 45 48 48 47 47 49 50 49 50 47 49 48 27 22 22 44 14 31 59 47 75 67 39 37 38 27 14 29 52 56 40 33 41 32 37 36 35 30 38 4 12
42 42 43 46 46 45 49 49 47 48 50 50 50 45 45 50 38 22 24 3 30 16 9 16 13 17 28 46 31 83 36 25 16 38 38 37 42 45 35 49 33 37 32 42 35 11 11
43 44 45 47 47 49 52 50 49 50 48 48 46 46 44 38 46 43 22 30 21 11 10 4 6 8 14 36 22 55 69 49 21 19 22 23 37 47 42 41 44 36 22 19 20 11 8
47 48 48 49 50 52 54 51 49 52 47 50 48 49 47 44 42 34 21 24 6 5 16 13 10 21 7 28 46 5 43 57 32 8 18 20 30 50 51 28 37 14 7 4 9 8 23
50 48 47 49 52 57 58 56 55 54 53 53 51 50 45 40 41 33 27 14 3 10 8 2 20 32 21 18 16 20 21 34 35 23 31 12 24 6 14 30 12 15 14 4 6 9 14
49 48 46 50 55 58 59 59 57 53 50 54 53 47 41 33 27 19 3 3 13 11 22 31 31 30 12 40 16 25 21 29 47 29 20 27 22 44 24 18 24 29 28 12 12 8 9
47 49 48 51 56 57 56 58 55 54 57 56 50 46 20 18 2 16 9 12 8 6 21 22 28 14 15 28 15 23 14 14 23 40 11 24 28 5 33 12 28 17 31 25 5 5 3
47 50 51 53 57 55 53 56 55 55 57 53 51 37 14 19 14 19 2 12 7 11 19 21 13 14 25 29 17 30 11 29 20 8 5 6 9 17 37 38 36 21 20 16 10 10 9
49 52 53 56 58 56 51 53 55 56 58 59 38 17 12 8 16 8 5 8 9 19 25 9 13 17 23 25 12 14 10 15 34 35 20 8 3 5 12 32 42 15 15 9 14 11 10
49 51 55 57 58 58 53 51 54 57 61 62 17 6 15 8 3 3 2 5 19 17 17 10 11 23 24 17 12 14 14 19 29 29 18 10 9 10 26 4 40 27 24 21 18 12 12
50 53 56 58 59 59 54 49 52 52 55 56 24 9 19 16 5 2 6 8 12 10 11 6 8 6 18 15 12 4 16 23 20 29 24 15 10 9 13 4 8 45 38 35 7 6 13
53 54 57 59 61 60 54 49 49 50 47 43 12 7 7 9 12 7 7 7 7 18 17 15 13 9 16 22 13 16 26 20 39 35 31 18 9 21 25 6 10 12 43 22 33 24 20
54 54 57 61 62 59 55 46 46 47 39 29 7 4 10 8 7 9 6 7 13 13 10 14 7 5 16 15 21 21 26 24 27 33 4 7 8 12 33 43 19 6 23 41 38 28 29
56 56 55 58 60 57 55 43 41 44 39 18 12 7 11 14 20 11 6 4 9 16 7 12 8 18 13 11 17 20 24 22 9 12 12 8 8 14 14 28 43 32 9 43 42 32 23
57 58 56 55 58 56 54 46 33 37 36 13 14 12 10 9 9 7 6 11 16 24 16 18 21 13 12 16 21 27 31 25 17 8 10 12 6 20 11 16 22 30 54 18 29 33 35
58 59 59 54 55 56 52 49 33 26 30 23 18 18 8 7 3 7 18 27 24 18 17 40 38 8 11 44 51 30 37 34 26 22 19 14 4 5 10 6 14 31 26 32 21 24 22
59 59 60 56 52 56 58 52 40 22 22 25 20 11 6 7 12 21 12 16 32 35 13 22 38 25 51 13 6 8 4 6 19 31 27 35 9 5 5 7 12 10 7 27 17 22 20
60 61 61 58 52 61 61 58 42 22 18 25 20 13 19 7 7 16 22 21 14 16 12 13 39 32 12 6 6 7 6 2 3 5 6 29 24 12 3 7 12 9 26 2 11 26 16
62 63 63 57 58 66 63 57 37 22 18 25 25 14 20 14 30 13 13 14 11 9 7 18 17 13 19 1 3 6 6 6 7 8 4 8 7 18 10 7 11 33 43 30 26 7 30
64 64 59 53 65 67 62 55 34 22 16 23 25 15 19 18 58 52 36 20 25 24 6 14 16 2 5 4 3 4 5 5 4 6 8 5 6 8 9 9 9 48 16 12 17 43 40
66 61 52 60 67 66 63 52 31 23 14 20 29 9 15 28 53 69 76 70 65 60 38 11 7 3 7 3 3 6 4 3 3 6 6 3 3 5 7 4 5 24 13 36 41 41 38
Wind_Direction_500mb
9 5 4 1 358 355 352 349 347 344 344 341 337 336 335 324 312 305 298 285 276 274 274 278 278 273 273 245 236 211 200 198 224 221 219 203 195 206 225 207 243 201 245 249 261 274 274
6 360 355 350 348 342 340 340 340 340 341 336 334 332 329 330 326 317 310 303 290 280 275 272 279 286 273 249 254 245 230 231 223 228 222 208 207 214 225 244 238 259 267 269 269 263 269
3 358 356 351 344 343 341 336 332 330 331 331 330 330 329 324 322 321 321 310 300 289 279 275 279 276 261 248 247 247 239 244 242 240 237 233 228 201 214 307 275 275 284 282 264 263 260
356 352 350 347 344 339 338 334 330 326 324 323 324 323 321 322 322 320 318 312 302 297 291 285 272 268 257 258 260 249 243 238 234 237 236 240 242 245 227 247 315 2 306 268 256 251 259
352 351 348 346 342 338 337 336 332 330 327 324 322 320 320 318 315 317 316 311 307 297 277 263 252 233 274 273 253 257 245 239 234 230 223 224 219 221 178 208 315 278 260 268 275 235 253
353 350 348 345 340 334 333 331 328 325 324 324 323 321 317 316 316 313 311 315 316 301 276 200 218 232 250 250 257 260 250 233 229 236 227 211 205 180 161 143 214 213 230 242 250 327 215
352 350 347 346 341 335 334 331 329 328 326 322 319 320 321 319 315 316 311 333 352 315 313 224 213 220 116 24 231 284 243 199 203 211 187 177 196 210 192 207 216 222 223 248 276 243 250
352 350 349 344 340 343 340 337 335 331 330 328 324 320 317 317 316 317 308 309 9 323 298 287 270 248 258 274 298 248 210 151 177 198 166 170 226 201 206 207 217 223 242 258 280 274 228
356 351 348 346 350 348 343 341 337 335 332 328 323 322 320 316 311 312 295 304 339 338 271 280 255 243 237 242 230 249 196 182 175 190 191 202 229 204 203 206 212 223 228 246 246 353 292
359 357 355 352 351 349 345 342 337 337 332 329 324 322 322 318 314 301 307 328 321 316 293 277 224 255 216 215 225 233 212 192 190 199 199 229 227 191 203 215 198 222 216 239 256 277 255
3 358 355 354 352 349 346 341 340 337 333 327 326 325 320 315 301 295 306 300 314 163 294 244 129 37 278 184 151 220 213 210 202 165 179 210 186 212 214 210 200 224 212 225 245 250 292
2 359 357 357 358 354 348 343 338 336 330 326 322 322 316 310 300 320 317 321 310 181 244 307 56 350 35 220 246 335 174 205 205 223 229 216 206 201 217 200 202 169 153 260 272 268 261
2 1 4 3 0 356 350 343 337 334 332 330 324 320 307 295 283 308 308 327 183 221 299 30 356 343 11 336 220 248 247 192 188 193 216 178 225 211 170 205 163 172 108 268 281 215 226
5 5 5 3 358 357 354 352 347 340 338 334 330 322 310 303 298 280 315 112 229 259 259 346 358 332 34 7 344 337 235 200 216 198 185 201 211 211 173 182 187 199 179 166 205 197 189
6 5 2 359 356 357 355 354 351 348 346 339 332 326 339 2 266 160 183 213 235 288 21 344 342 342 352 354 334 352 343 251 225 216 183 198 231 175 186 168 162 193 207 184 10 312 72
6 7 5 1 357 354 354 356 354 353 352 347 341 338 1 346 170 170 180 243 274 339 1 354 359 347 335 338 5 359 315 27 349 328 173 268 207 214 206 193 198 168 151 177 201 211 207
7 5 3 0 359 356 354 354 352 350 352 349 345 337 1 26 159 179 220 258 304 307 307 327 340 312 309 316 4 340 300 344 23 350 333 203 151 278 160 204 188 175 197 162 156 216 170
4 3 2 2 360 359 355 355 352 352 350 353 359 328 327 302 194 207 220 258 306 296 294 287 255 272 276 321 314 312 275 323 6 17 349 288 227 216 225 246 194 199 196 205 185 203 227
3 1 359 359 358 356 354 350 352 352 353 351 348 306 332 57 336 147 295 277 270 294 287 277 277 255 286 294 310 304 317 327 322 12 345 331 281 259 338 346 181 198 202 206 171 96 193
360 0 358 357 357 355 351 351 351 350 350 351 6 336 335 45 1 303 311 270 281 293 294 252 247 267 288 286 293 289 281 286 306 311 327 338 282 247 217 224 145 186 199 172 189 218 219
354 356 355 353 355 356 354 351 354 355 354 358 23 322 350 321 321 296 284 297 312 339 310 297 301 265 302 285 303 273 278 302 305 311 8 36 276 308 275 258 278 202 191 198 205 200 199
348 348 352 351 351 354 354 351 356 359 0 17 358 341 323 284 301 301 304 306 300 331 259 293 253 291 286 270 281 290 297 296 307 300 347 3 281 324 267 244 241 248 247 202 213 213 225
346 344 346 350 348 349 352 352 351 358 1 6 334 299 280 280 318 339 278 342 295 311 289 234 296 305 281 275 316 294 292 283 240 229 263 297 333 351 280 244 242 257 241 222 211 203 203
348 346 343 349 348 345 348 349 343 348 351 350 345 315 297 285 271 233 288 299 288 297 278 290 291 235 261 317 313 289 263 258 248 231 212 240 115 237 278 273 191 246 224 219 210 215 212
348 347 344 344 348 344 343 343 340 334 330 335 330 296 276 276 244 296 283 295 306 305 271 283 298 299 305 300 278 271 256 238 240 232 220 219 166 258 253 261 279 245 230 192 170 247 212
346 345 344 341 346 344 342 339 334 326 304 304 324 288 266 277 258 284 303 288 295 321 312 274 315 327 338 189 193 224 245 211 243 119 337 223 193 190 215 252 220 33 330 239 120 236 211
345 345 343 342 345 344 341 339 333 325 312 293 296 290 283 260 284 274 270 294 279 278 274 299 321 328 354 266 153 222 246 261 208 131 12 115 118 219 263 289 288 345 317 309 177 248 318
346 346 345 346 345 344 343 341 331 327 307 296 293 279 263 269 288 270 260 248 253 279 254 303 337 355 292 340 203 234 250 220 102 61 111 28 325 184 196 240 266 353 16 46 310 316 314
347 348 350 347 346 345 345 345 335 321 300 279 288 287 260 274 271 293 288 279 267 267 258 252 246 284 267 317 318 298 330 328 151 176 192 223 170 316 279 310 8 343 343 329 335 320 317
Wind_Speed_850mb
35 35 34 34 35 38 39 39 39 39 38 39 38 38 37 36 42 47 48 48 49 50 51 51 48 49 45 33 55 15 39 33 15 11 44 55 47 41 16 11 11 12 28 52 55 57 59
33 34 34 34 33 35 37 39 41 41 41 41 42 42 43 43 42 41 41 44 49 49 47 46 38 36 40 30 70 63 51 53 27 20 24 52 34 44 7 22 12 24 26 40 38 53 57
36 37 36 36 40 42 42 41 42 43 43 44 45 45 45 45 46 46 47 46 44 46 50 49 37 36 50 93 45 44 69 89 73 60 50 38 59 23 18 11 43 30 27 34 27 36 43
39 39 38 39 40 42 42 40 41 42 43 44 45 47 48 49 49 49 49 49 48 52 46 40 37 31 45 66 52 87 76 50 63 69 71 64 45 54 30 17 15 8 6 14 12 31 38
39 41 43 41 40 42 46 44 43 45 46 47 45 47 50 52 52 50 52 56 55 56 54 42 31 28 37 33 65 84 83 80 65 51 48 28 47 33 9 14 9 4 28 31 43 22 12
43 43 45 46 46 47 44 45 46 47 48 49 51 50 48 49 52 53 55 56 49 27 21 18 25 12 45 38 32 46 59 76 57 36 47 39 25 12 10 10 26 20 16 12 33 2 17
46 45 44 46 47 46 44 46 49 49 47 47 48 51 55 53 48 48 54 56 18 3 14 21 17 29 12 33 32 13 19 40 50 33 25 33 15 37 36 42 33 16 15 18 16 8 13
46 47 47 47 49 44 44 47 48 48 47 49 50 49 47 52 54 45 42 23 17 23 29 47 61 72 86 65 25 22 30 26 28 35 20 14 60 38 32 32 32 18 19 34 37 17 13
43 44 43 43 45 44 45 48 48 47 47 49 50 49 50 47 49 48 27 22 22 44 14 31 59 47 75 67 39 37 38 27 14 29 52 56 40 33 41 32 37 36 35 30 38 4 12
42 42 43 46 46 45 49 49 47 48 50 50 50 45 45 50 38 22 24 3 30 16 9 16 13 17 28 46 31 83 36 25 16 38 38 37 42 45 35 49 33 37 32 42 35 11 11
43 44 45 47 47 49 52 50 49 50 48 48 46 46 44 38 46 43 22 30 21 11 10 4 6 8 14 36 22 55 69 49 21 19 22 23 37 47 42 41 44 36 22 19 20 11 8
47 48 48 49 50 52 54 51 49 52 47 50 48 49 47 44 42 34 21 24 6 5 16 13 10 21 7 28 46 5 43 57 32 8 18 20 30 50 51 28 37 14 7 4 9 8 23
50 48 47 49 52 57 58 56 55 54 53 53 51 50 45 40 41 33 27 14 3 10 8 2 20 32 21 18 16 20 21 34 35 23 31 12 24 6 14 30 12 15 14 4 6 9 14
49 48 46 50 55 58 59 59 57 53 50 54 53 47 41 33 27 19 3 3 13 11 22 31 31 30 12 40 16 25 21 29 47 29 20 27 22 44 24 18 24 29 28 12 12 8 9
47 49 48 51 56 57 56 58 55 54 57 56 50 46 20 18 2 16 9 12 8 6 21 22 28 14 15 28 15 23 14 14 23 40 11 24 28 5 33 12 28 17 31 25 5 5 3
47 50 51 53 57 55 53 56 55 55 57 53 51 37 14 19 14 19 2 12 7 11 19 21 13 14 25 29 17 30 11 29 20 8 5 6 9 17 37 38 36 21 20 16 10 10 9
49 52 53 56 58 56 51 53 55 56 58 59 38 17 12 8 16 8 5 8 9 19 25 9 13 17 23 25 12 14 10 15 34 35 20 8 3 5 12 32 42 15 15 9 14 11 10
49 51 55 57 58 58 53 51 54 57 61 62 17 6 15 8 3 3 2 5 19 17 17 10 11 23 24 17 12 14 14 19 29 29 18 10 9 10 26 4 40 27 24 21 18 12 12
50 53 56 58 59 59 54 49 52 52 55 56 24 9 19 16 5 2 6 8 12 10 11 6 8 6 18 15 12 4 16 23 20 29 24 15 10 9 13 4 8 45 38 35 7 6 13
53 54 57 59 61 60 54 49 49 50 47 43 12 7 7 9 12 7 7 7 7 18 17 15 13 9 16 22 13 16 26 20 39 35 31 18 9 21 25 6 10 12 43 22 33 24 20
54 54 57 61 62 59 55 46 46 47 39 29 7 4 10 8 7 9 6 7 13 13 10 14 7 5 16 15 21 21 26 24 27 33 4 7 8 12 33 43 19 6 23 41 38 28 29
56 56 55 58 60 57 55 43 41 44 39 18 12 7 11 14 20 11 6 4 9 16 7 12 8 18 13 11 17 20 24 22 9 12 12 8 8 14 14 28 43 32 9 43 42 32 23
57 58 56 55 58 56 54 46 33 37 36 13 14 12 10 9 9 7 6 11 16 24 16 18 21 13 12 16 21 27 31 25 17 8 10 12 6 20 11 16 22 30 54 18 29 33 35
58 59 59 54 55 56 52 49 33 26 30 23 18 18 8 7 3 7 18 27 24 18 17 40 38 8 11 44 51 30 37 34 26 22 19 14 4 5 10 6 14 31 26 32 21 24 22
59 59 60 56 52 56 58 52 40 22 22 25 20 11 6 7 12 21 12 16 32 35 13 22 38 25 51 13 6 8 4 6 19 31 27 35 9 5 5 7 12 10 7 27 17 22 20
60 61 61 58 52 61 61 58 42 22 18 25 20 13 19 7 7 16 22 21 14 16 12 13 39 32 12 6 6 7 6 2 3 5 6 29 24 12 3 7 12 9 26 2 11 26 16
62 63 63 57 58 66 63 57 37 22 18 25 25 14 20 14 30 13 13 14 11 9 7 18 17 13 19 1 3 6 6 6 7 8 4 8 7 18 10 7 11 33 43 30 26 7 30
64 64 59 53 65 67 62 55 34 22 16 23 25 15 19 18 58 52 36 20 25 24 6 14 16 2 5 4 3 4 5 5 4 6 8 5 6 8 9 9 9 48 16 12 17 43 40
66 61 52 60 67 66 63 52 31 23 14 20 29 9 15 28 53 69 76 70 65 60 38 11 7 3 7 3 3 6 4 3 3 6 6 3 3 5 7 4 5 24 13 36 41 41 38
Wind_Direction_850mb
9 5 4 1 358 355 352 349 347 344 344 341 337 336 335 324 312 305 298 285 276 274 274 278 278 273 273 245 236 211 200 198 224 221 219 203 195 206 225 207 243 201 245 249 261 274 274
6 360 355 350 348 342 340 340 340 340 341 336 334 332 329 330 326 317 310 303 290 280 275 272 279 286 273 249 254 245 230 231 223 228 222 208 207 214 225 244 238 259 267 269 269 263 269
3 358 356 351 344 343 341 336 332 330 331 331 330 330 329 324 322 321 321 310 300 289 279 275 279 276 261 248 247 247 239 244 242 240 237 233 228 201 214 307 275 275 284 282 264 263 260
356 352 350 347 344 339 338 334 330 326 324 323 324 323 321 322 322 320 318 312 302 297 291 285 272 268 257 258 260 249 243 238 234 237 236 240 242 245 227 247 315 2 306 268 256 251 259
352 351 348 346 342 338 337 336 332 330 327 324 322 320 320 318 315 317 316 311 307 297 277 263 252 233 274 273 253 257 245 239 234 230 223 224 219 221 178 208 315 278 260 268 275 235 253
353 350 348 345 340 334 333 331 328 325 324 324 323 321 317 316 316 313 311 315 316 301 276 200 218 232 250 250 257 260 250 233 229 236 227 211 205 180 161 143 214 213 230 242 250 327 215
352 350 347 346 341 335 334 331 329 328 326 322 319 320 321 319 315 316 311 333 352 315 313 224 213 220 116 24 231 284 243 199 203 211 187 177 196 210 192 207 216 222 223 248 276 243 250
352 350 349 344 340 343 340 337 335 331 330 328 324 320 317 317 316 317 308 309 9 323 298 287 270 248 258 274 298 248 210 151 177 198 166 170 226 201 206 207 217 223 242 258 280 274 228
356 351 348 346 350 348 343 341 337 335 332 328 323 322 320 316 311 312 295 304 339 338 271 280 255 243 237 242 230 249 196 182 175 190 191 202 229 204 203 206 212 223 228 246 246 353 292
359 357 355 352 351 349 345 342 337 337 332 329 324 322 322 318 314 301 307 328 321 316 293 277 224 255 216 215 225 233 212 192 190 199 199 229 227 191 203 215 198 222 216 239 256 277 255
3 358 355 354 352 349 346 341 340 337 333 327 326 325 320 315 301 295 306 300 314 163 294 244 129 37 278 184 151 220 213 210 202 165 179 210 186 212 214 210 200 224 212 225 245 250 292
2 359 357 357 358 354 348 343 338 336 330 326 322 322 316 310 300 320 317 321 310 181 244 307 56 350 35 220 246 335 174 205 205 223 229 216 206 201 217 200 202 169 153 260 272 268 261
2 1 4 3 0 356 350 343 337 334 332 330 324 320 307 295 283 308 308 327 183 221 299 30 356 343 11 336 220 248 247 192 188 193 216 178 225 211 170 205 163 172 108 268 281 215 226
5 5 5 3 358 357 354 352 347 340 338 334 330 322 310 303 298 280 315 112 229 259 259 346 358 332 34 7 344 337 235 200 216 198 185 201 211 211 173 182 187 199 179 166 205 197 189
6 5 2 359 356 357 355 354 351 348 346 339 332 326 339 2 266 160 183 213 235 288 21 344 342 342 352 354 334 352 343 251 225 216 183 198 231 175 186 168 162 193 207 184 10 312 72
6 7 5 1 357 354 354 356 354 353 352 347 341 338 1 346 170 170 180 243 274 339 1 354 359 347 335 338 5 359 315 27 349 328 173 268 207 214 206 193 198 168 151 177 201 211 207
7 5 3 0 359 356 354 354 352 350 352 349 345 337 1 26 159 179 220 258 304 307 307 327 340 312 309 316 4 340 300 344 23 350 333 203 151 278 160 204 188 175 197 162 156 216 170
4 3 2 2 360 359 355 355 352 352 350 353 359 328 327 302 194 207 220 258 306 296 294 287 255 272 276 321 314 312 275 323 6 17 349 288 227 216 225 246 194 199 196 205 185 203 227
3 1 359 359 358 356 354 350 352 352 353 351 348 306 332 57 336 147 295 277 270 294 287 277 277 255 286 294 310 304 317 327 322 12 345 331 281 259 338 346 181 198 202 206 171 96 193
360 0 358 357 357 355 351 351 351 350 350 351 6 336 335 45 1 303 311 270 281 293 294 252 247 267 288 286 293 289 281 286 306 311 327 338 282 247 217 224 145 186 199 172 189 218 219
354 356 355 353 355 356 354 351 354 355 354 358 23 322 350 321 321 296 284 297 312 339 310 297 301 265 302 285 303 273 278 302 305 311 8 36 276 308 275 258 278 202 191 198 205 200 199
348 348 352 351 351 354 354 351 356 359 0 17 358 341 323 284 301 301 304 306 300 331 259 293 253 291 286 270 281 290 297 296 307 300 347 3 281 324 267 244 241 248 247 202 213 213 225
346 344 346 350 348 349 352 352 351 358 1 6 334 299 280 280 318 339 278 342 295 311 289 234 296 305 281 275 316 294 292 283 240 229 263 297 333 351 280 244 242 257 241 222 211 203 203
348 346 343 349 348 345 348 349 343 348 351 350 345 315 297 285 271 233 288 299 288 297 278 290 291 235 261 317 313 289 263 258 248 231 212 240 115 237 278 273 191 246 224 219 210 215 212
348 347 344 344 348 344 343 343 340 334 330 335 330 296 276 276 244 296 283 295 306 305 271 283 298 299 305 300 278 271 256 238 240 232 220 219 166 258 253 261 279 245 230 192 170 247 212
346 345 344 341 346 344 342 339 334 326 304 304 324 288 266 277 258 284 303 288 295 321 312 274 315 327 338 189 193 224 245 211 243 119 337 223 193 190 215 252 220 33 330 239 120 236 211
345 345 343 342 345 344 341 339 333 325 312 293 296 290 283 260 284 274 270 294 279 278 274 299 321 328 354 266 153 222 246 261 208 131 12 115 118 219 263 289 288 345 317 309 177 248 318
346 346 345 346 345 344 343 341 331 327 307 296 293 279 263 269 288 270 260 248 253 279 254 303 337 355 292 340 203 234 250 220 102 61 111 28 325 184 196 240 266 353 16 46 310 316 314
347 348 350 347 346 345 345 345 335 321 300 279 288 287 260 274 271 293 288 279 267 267 258 252 246 284 267 317 318 298 330 328 151 176 192 223 170 316 279 310 8 343 343 329 335 320 317